Weather History for KVLL - December, 2012

Change the Weather History Date:

Sunday, December 2, 2012

  Actual Average (KDET) Record (KDET)
Temperature  
Mean Temperature 55 °F -  
Max Temperature 59 °F 40 °F 67 °F (1982)
Min Temperature 51 °F 28 °F 6 °F (1976)
Degree Days  
Heating Degree Days 10    
Growing Degree Days 5 (Base 50)    
Moisture  
Dew Point 52 °F    
Average Humidity 84    
Maximum Humidity 91    
Minimum Humidity 66    
Precipitation  
Precipitation 0.00 in - - ()
Sea Level Pressure  
Sea Level Pressure 30.00 in    
Wind  
Wind Speed 9 mph (SW)    
Max Wind Speed 14 mph    
Max Gust Speed 20 mph    
Visibility 7 miles    
Events Rain    
Averages and records for this station are not official NWS values.
T = Trace of Precipitation, MM = Missing Value Source: NWS Daily Summary

Daily Weather History Graph

Daily Weather History Graph

Search for Another Location

Airport or City:

Trip Planner

Search our weather history database for the weather conditions in past years. The results will help you decide how hot, cold, wet, or windy it might be!

Date:

Astronomy

Dec. 02, 2012 Rise Set
Actual Time 7:44 AM EST 5:00 PM EST
Civil Twilight 7:12 AM EST 5:31 PM EST
Nautical Twilight 6:37 AM EST 6:06 PM EST
Astronomical Twilight 6:03 AM EST 6:40 PM EST
Moon 8:48 PM EST (12/2) 10:31 AM EST (12/2)
Length of Visible Light 10h 18m
Length of Day
9h 15m
Waning Gibbous, 86% of the Moon is Illuminated
Dec 2
Waning Gibbous
Dec 6
Last Quarter
Dec 13
New
Dec 20
First Quarter
Dec 28
Full

Hourly Weather History & Observations

Time (EST) Temp. Dew Point Humidity Pressure Visibility Wind Dir Wind Speed Gust Speed Precip Events Conditions
12:15 AM 58.6 °F 47.5 °F 66% 30.02 in 10.0 mi South 13.8 mph 19.6 mph N/A   Overcast
12:35 AM 58.6 °F 48.0 °F 68% 30.02 in 10.0 mi SSW 9.2 mph 17.3 mph N/A Rain Light Rain
12:54 AM 58.3 °F 48.4 °F 70% 30.02 in 10.0 mi SSW 11.5 mph 17.3 mph N/A Rain Light Rain
1:15 AM 57.0 °F 50.4 °F 78% 30.02 in 7.0 mi SSW 9.2 mph 17.3 mph N/A Rain Heavy Rain
1:34 AM 56.5 °F 50.5 °F 80% 30.02 in 10.0 mi SSW 11.5 mph 18.4 mph N/A Rain Light Rain
1:55 AM 56.3 °F 50.9 °F 82% 30.01 in 10.0 mi SSW 11.5 mph - N/A Rain Rain
2:15 AM 56.3 °F 50.9 °F 82% 30.00 in 10.0 mi SSW 10.4 mph - N/A Rain Light Rain
2:34 AM 56.5 °F 50.5 °F 80% 30.00 in 10.0 mi SSW 10.4 mph 17.3 mph N/A Rain Light Rain
2:55 AM 56.7 °F 50.0 °F 78% 30.00 in 10.0 mi SSW 11.5 mph 17.3 mph N/A   Overcast
3:15 AM 57.2 °F 49.6 °F 76% 29.99 in 10.0 mi South 10.4 mph 18.4 mph N/A   Overcast
3:34 AM 57.2 °F 49.5 °F 75% 29.98 in 10.0 mi SSW 6.9 mph 16.1 mph N/A   Overcast
3:55 AM 57.2 °F 49.3 °F 75% 29.97 in 10.0 mi SSW 10.4 mph 17.3 mph N/A   Overcast
4:15 AM 57.2 °F 49.5 °F 75% 29.96 in 10.0 mi SSW 8.1 mph 17.3 mph N/A   Overcast
4:34 AM 57.4 °F 49.5 °F 75% 29.96 in 10.0 mi SSW 12.7 mph 17.3 mph N/A   Overcast
4:55 AM 57.4 °F 49.5 °F 75% 29.95 in 10.0 mi SSW 10.4 mph - N/A   Overcast
5:14 AM 57.7 °F 49.3 °F 73% 29.95 in 10.0 mi SSW 8.1 mph - N/A   Overcast
5:35 AM 57.6 °F 49.3 °F 74% 29.95 in 10.0 mi SSW 8.1 mph - N/A   Overcast
5:54 AM 57.4 °F 49.5 °F 75% 29.95 in 10.0 mi SSW 6.9 mph - N/A   Overcast
6:15 AM 57.4 °F 49.5 °F 75% 29.95 in 10.0 mi SSW 9.2 mph - N/A   Overcast
6:35 AM 57.6 °F 49.6 °F 75% 29.95 in 10.0 mi SSW 9.2 mph - N/A   Overcast
6:54 AM 57.6 °F 49.5 °F 74% 29.95 in 10.0 mi SW 8.1 mph - N/A   Overcast
7:15 AM 58.1 °F 49.5 °F 73% 29.96 in 10.0 mi SW 8.1 mph 16.1 mph N/A   Overcast
7:35 AM 57.7 °F 50.0 °F 75% 29.95 in 10.0 mi SSW 10.4 mph - N/A   Overcast
7:54 AM 57.4 °F 50.0 °F 76% 29.95 in 10.0 mi SSW 9.2 mph - N/A Rain Light Rain
8:15 AM 55.9 °F 50.9 °F 83% 29.96 in 5.0 mi SW 8.1 mph - N/A Rain Rain
8:34 AM 55.4 °F 51.3 °F 86% 29.95 in 7.0 mi SSW 9.2 mph - N/A Rain Light Rain
8:55 AM 55.4 °F 51.8 °F 88% 29.95 in 5.0 mi SSW 10.4 mph - N/A Rain Rain
9:15 AM 55.0 °F 51.8 °F 89% 29.96 in 4.0 mi SSW 8.1 mph - N/A Rain Rain
9:34 AM 55.0 °F 52.0 °F 89% 29.95 in 5.0 mi SW 9.2 mph - N/A Rain Light Rain
9:55 AM 55.4 °F 52.3 °F 89% 29.96 in 5.0 mi SW 8.1 mph - N/A   Overcast
10:14 AM 55.4 °F 52.3 °F 89% 29.96 in 5.0 mi SW 8.1 mph - N/A   Overcast
10:35 AM 55.4 °F 52.7 °F 91% 29.95 in 5.0 mi SW 8.1 mph - N/A   Overcast
10:55 AM 55.8 °F 53.1 °F 91% 29.96 in 5.0 mi SW 10.4 mph - N/A Rain Rain
11:14 AM 55.9 °F 53.2 °F 91% 29.96 in 5.0 mi SW 8.1 mph - N/A   Overcast
11:35 AM 55.9 °F 53.2 °F 91% 29.95 in 5.0 mi SW 9.2 mph - N/A   Overcast
11:55 AM 56.3 °F 53.8 °F 91% 29.94 in 3.0 mi SW 10.4 mph 16.1 mph N/A   Overcast
12:14 PM 56.8 °F 54.3 °F 91% 29.94 in 4.0 mi WSW 8.1 mph - N/A   Overcast
12:35 PM 57.2 °F 54.5 °F 91% 29.94 in 5.0 mi WSW 8.1 mph - N/A   Overcast
12:55 PM 57.6 °F 54.7 °F 90% 29.94 in 5.0 mi WSW 8.1 mph - N/A   Overcast
1:14 PM 57.9 °F 54.7 °F 89% 29.94 in 7.0 mi WSW 9.2 mph - N/A   Overcast
1:35 PM 58.1 °F 54.9 °F 89% 29.94 in 7.0 mi WSW 6.9 mph - N/A   Overcast
1:55 PM 58.3 °F 54.9 °F 88% 29.95 in 7.0 mi WSW 8.1 mph - N/A   Overcast
2:14 PM 58.6 °F 55.0 °F 88% 29.95 in 7.0 mi West 5.8 mph - N/A   Overcast
2:35 PM 58.6 °F 55.0 °F 88% 29.95 in 5.0 mi WSW 6.9 mph - N/A   Overcast
2:54 PM 58.5 °F 55.2 °F 89% 29.95 in 4.0 mi WSW 4.6 mph - N/A   Overcast
3:15 PM 58.8 °F 55.4 °F 88% 29.96 in 5.0 mi West 6.9 mph - N/A   Overcast
3:35 PM 59.0 °F 55.2 °F 87% 29.97 in 5.0 mi WSW 8.1 mph - N/A   Overcast
4:15 PM 59.2 °F 54.7 °F 85% 29.99 in 7.0 mi West 6.9 mph - N/A   Overcast
4:34 PM 59.2 °F 54.5 °F 84% 30.00 in 7.0 mi WSW 8.1 mph - N/A   Overcast
4:55 PM 59.0 °F 54.1 °F 84% 30.01 in 7.0 mi WSW 5.8 mph - N/A   Overcast
5:15 PM 59.0 °F 54.1 °F 84% 30.02 in 7.0 mi WSW 6.9 mph - N/A   Overcast
5:34 PM 59.0 °F 54.0 °F 83% 30.02 in 10.0 mi West 6.9 mph - N/A   Overcast
5:55 PM 58.6 °F 54.0 °F 84% 30.04 in 7.0 mi Calm Calm - N/A   Overcast
6:14 PM 58.1 °F 53.6 °F 85% 30.05 in 7.0 mi WSW 3.5 mph - N/A   Overcast
6:35 PM 57.6 °F 53.4 °F 86% 30.06 in 7.0 mi Calm Calm - N/A   Mostly Cloudy
6:55 PM 56.3 °F 52.7 °F 88% 30.07 in 7.0 mi Calm Calm - N/A   Overcast
7:14 PM 57.2 °F 53.1 °F 86% 30.07 in 7.0 mi WNW 3.5 mph - N/A   Overcast
7:35 PM 57.2 °F 52.3 °F 84% 30.09 in 7.0 mi WNW 3.5 mph - N/A   Mostly Cloudy
7:54 PM 55.4 °F 51.6 °F 87% 30.09 in 7.0 mi Calm Calm - N/A   Mostly Cloudy
8:15 PM 54.7 °F 51.1 °F 88% 30.10 in 5.0 mi WNW 3.5 mph - N/A   Overcast
8:34 PM 53.8 °F 50.4 °F 88% 30.10 in 5.0 mi Calm Calm - N/A   Overcast
8:55 PM 54.5 °F 50.9 °F 88% 30.11 in 5.0 mi West 3.5 mph - N/A   Overcast
9:15 PM 53.8 °F 50.4 °F 88% 30.11 in 5.0 mi Calm Calm - N/A   Overcast
9:34 PM 52.9 °F 50.0 °F 90% 30.11 in 4.0 mi Calm Calm - N/A   Overcast
9:55 PM 52.2 °F 49.5 °F 91% 30.12 in 4.0 mi NNW 4.6 mph - N/A   Overcast
10:15 PM 53.2 °F 50.0 °F 89% 30.12 in 5.0 mi NNW 3.5 mph - N/A   Overcast
10:34 PM 52.5 °F 49.5 °F 89% 30.12 in 5.0 mi Calm Calm - N/A   Overcast
10:55 PM 52.0 °F 49.1 °F 90% 30.13 in 5.0 mi Calm Calm - N/A   Overcast
11:14 PM 51.8 °F 49.1 °F 90% 30.13 in 5.0 mi Calm Calm - N/A   Overcast
11:35 PM 52.3 °F 49.5 °F 90% 30.14 in 5.0 mi NNE 3.5 mph - N/A   Overcast
11:55 PM 53.1 °F 48.9 °F 86% 30.14 in 7.0 mi Calm Calm - N/A   Overcast